FENGYUN 1C DEB

Satellite information

Favourite Embed

Satellite Type and Status

DEBRISIN ORBIT

Key statistics

Satellite FENGYUN 1C DEB at a glance.

Uptime

9498

Days in orbit

Revolutions

≈ 14.2

Per day

Orbit

SSO

Sun Synchronous Orbit

Inclination

98.6

Latest

Satellite identification and parameters

Extended collection of information and parameters for FENGYUN 1C DEB.

Object identification

Identified? True

Debris? True

Object name: FENGYUN 1C DEB

International designator: 1999-025RU

Object number (NORAD): 30115

Object ID (CCSDS): 30115

Country: PEOPLES REPUBLIC OF CHINA (PRC)

Current information (Y/N): Y

RCS size: SMALL

Orbital parameters

Period: 101.492 minutes

Inclination: 98.6381 deg

SMA: 7207.45 km

Apoapsis: 877.339 km

Periapsis: 781.29 km

RAAN: 163.415 deg

Eccentricy: 0.0066632

Argument of periapsis: 324.2983 deg

Mean anomaly: 150.2471 deg

Mean motion: 14.18829908 rev/day

Mean motion (dot): 0.00001843 rev/day2

B* drag term: 0.00088699 1/REarth

Two-line elements (TLE)

Creation date: May 11, 2025, 2:40 a.m.

Reference frame: TEME

Reference center: EARTH

Epoch: May 10, 2025, 3:22 p.m. UTC

TLE line 0: 0 FENGYUN 1C DEB

TLE line 1: 1 30115U 99025RU 25130.64036175 .00001843 00000-0 88699-3 0 9997

TLE line 2: 2 30115 98.6381 163.4150 0066632 324.2983 150.2471 14.18829908942635

Live tracking on map

Real-time ground track for satellite FENGYUN 1C DEB.

In-orbit conjunctions

A list of the most updated potential collisions computed for object FENGYUN 1C DEB.

Target Orbit TCA Probability of collision Miss distance Type
SL-16 DEB LEO 2025-02-13 13:01:02 0.0003475623 127.0 (m) DEBRIS
CZ-6A DEB SSO 2024-11-11 00:20:51 0.0001264678 164.0 (m) DEBRIS

Associated space launch

Chinese polar orbiting meteorological satellite

FENGYUN 1C DEB was lifted into orbit during the mission ‘Long March 4B | Feng Yun 1C’, on board a Long March 4B space rocket.

The launch took place on May 10, 1999, 1:33 a.m. from Launch Complex 7.

For more information about the launch, click the button.

Launch to space Long March 4B | Feng Yun 1C
Long March 4B | Feng Yun 1C

Agency: N/A

Status: Launch Successful

Launch date: May 10, 1999, 1:33 a.m. UTC

Rocket: Long March 4B

Launch pad: Launch Complex 7

Location: Taiyuan Satellite Launch Center, People's Republic of China

...

Latest news about this satellite

There are no fresh news available about this satellite. Check back as we update our databases every day.


Newsletter sign-up

Weekly statistics, charts and insights to help you stay on top of the space industry.